Hourly Data Report for October 19, 2016

All times are specified in Local Standard Time (LST). Add 1 hour to adjust for Daylight Saving Time where and when it is observed.

FREDERICTON
NEW BRUNSWICK

45°52'08.000" N
66°32'14.000" W
20.70 m
8101505
71700
YFC

Download Data

Hourly Data (October 2016)
Hourly Data Report for October 19, 2016
Temp Definition
°C
Dew Point Temp Definition
°C
Rel Hum Definition
%
Wind Dir Definition
10's deg

Wind Spd Definition
km/h
Visibility Definition
km
Stn Press Definition
kPa
Hmdx Definition


Wind Chill Definition


Weather Definition


TIME
00:00 Legend Double Dagger 15.1 13.9 93 18 26 16.1 100.28     LegendNANA
01:00 Legend Double Dagger 15.5 14.7 95 19 24 14.5 100.24     Rain
02:00 Legend Double Dagger 15.8 15.0 95 22 22 16.1 100.25     LegendNANA
03:00 Legend Double Dagger 15.9 15.3 96 19 17 8.1 100.15     Rain,Fog
04:00 Legend Double Dagger 16.2 15.6 96 20 21 11.3 100.16     LegendNANA
05:00 Legend Double Dagger 16.4 15.4 94 21 24 12.9 100.17     LegendNANA
06:00 Legend Double Dagger 16.3 15.4 94 21 24 14.5 100.19     LegendNANA
07:00 Legend Double Dagger 15.8 15.0 95 21 17 16.1 100.26     LegendNANA
08:00 Legend Double Dagger 15.7 14.6 93 21 18 16.1 100.33     LegendNANA
09:00 Legend Double Dagger 17.6 14.7 83 24 13 16.1 100.40     LegendNANA
10:00 Legend Double Dagger 18.1 11.9 67 28 17 16.1 100.47     LegendNANA
11:00 Legend Double Dagger 18.5 10.2 58 30 17 16.1 100.54     LegendNANA
12:00 Legend Double Dagger 18.8 9.1 53 28 22 16.1 100.60     LegendNANA
13:00 Legend Double Dagger 19.3 8.9 50 29 15 16.1 100.62     LegendNANA
14:00 Legend Double Dagger 18.9 8.3 50 31 18 16.1 100.65     LegendNANA
15:00 Legend Double Dagger 18.8 8.1 50 29 15 16.1 100.73     LegendNANA
16:00 Legend Double Dagger 18.0 8.2 52 31 22 16.1 100.80     LegendNANA
17:00 Legend Double Dagger 15.8 7.4 57 30 13 16.1 100.95     LegendNANA
18:00 Legend Double Dagger 13.8 6.7 62 29 15 16.1 101.08     LegendNANA
19:00 Legend Double Dagger 13.0 6.1 63 28 15 16.1 101.24     LegendNANA
20:00 Legend Double Dagger 12.3 5.1 61 28 18 16.1 101.31     LegendNANA
21:00 Legend Double Dagger 11.5 5.1 65 26 13 16.1 101.40     LegendNANA
22:00 Legend Double Dagger 9.4 4.9 73 22 8 16.1 101.51     LegendNANA
23:00 Legend Double Dagger 8.7 4.5 75 25 5 16.1 101.60     LegendNANA

Notes on Data Quality.

Legend

  • E = Estimated
  • M = Missing
  • NA = Not Available
  • ‡ = Partner data that is not subject to review by the National Climate Archives
Date modified: